Flag for U.S.A. Weather past 2 weeks in Elizabeth, New Jersey, U.S.A.

Now
91 °F

Passing clouds.


Feels Like: 92 °F
Forecast: 73 / 92 °F
Wind: 9 mph from North

Location: Newark International Airport

Current Time: Sep 3, 2015 at 1:31:06 PM

Latest Report: Sep 3, 2015 at 12:51 PM


Visibility: 10 mi

Pressure: 29.85 "Hg

Humidity: 38%

Dew point: 62 °F

Location of ElizabethLocation

Historic Weather in Elizabeth — Graph

°F

Elizabeth temperature yesterday

Maximum temperature yesterday: 90 °F (at 11:53 AM)
Minimum temperature yesterday: 72 °F (at 2:51 AM)
Average temperature yesterday: 80 °F

Past Weeks' High & Low Weather Summary

 TemperatureHumidityPressure
High93 °F (Aug 31, 4:51 PM)94% (Aug 21, 3:02 AM)30.22 "Hg (Aug 21, 3:02 AM)
Low63 °F (Aug 28, 5:51 AM)27% (Aug 25, 4:51 PM)29.80 "Hg (Aug 25, 3:51 PM)
Average78 °F60%30.00 "Hg
* Reported Aug 19 11:51 AM — Sep 3 11:51 AM, Elizabeth, Weather by CustomWeather, © 2015

Note: Actual official high and low records may vary slightly from our data, if they occured in-between our weather recording intervals... More about our weather records

Advertising

Elizabeth weather history for previous 24 hours

 ConditionsComfort  
Time TempWeatherWind HumidityBarometerVisibility
11:51 AM
Thu, Sep 3
89 °FPassing clouds.8 mph41%29.87 "Hg10 mi
10:51 AM86 °FPassing clouds.9 mph46%29.88 "Hg9 mi
9:51 AM84 °FPassing clouds.8 mph55%29.88 "Hg8 mi
8:51 AM80 °FScattered clouds.7 mph62%29.88 "Hg9 mi
7:51 AM77 °FScattered clouds.6 mph69%29.88 "Hg8 mi
6:51 AM75 °FPassing clouds.5 mph74%29.86 "Hg9 mi
5:51 AM76 °FPassing clouds.5 mph69%29.86 "Hg10 mi
4:51 AM77 °FPassing clouds.5 mph69%29.85 "Hg10 mi
3:51 AM75 °FClear.No wind79%29.86 "Hg10 mi
2:51 AM74 °FClear.No wind82%29.86 "Hg10 mi
1:51 AM77 °FClear.5 mph77%29.87 "Hg10 mi
12:51 AM77 °FClear.5 mph82%29.88 "Hg10 mi
11:51 PM
Wed, Sep 2
78 °FClear.6 mph79%29.88 "Hg10 mi
10:51 PM79 °FPassing clouds.No wind77%29.90 "Hg10 mi
9:51 PM80 °FPassing clouds.3 mph71%29.89 "Hg10 mi
8:51 PM81 °FPassing clouds.3 mph67%29.89 "Hg10 mi
7:51 PM82 °FScattered clouds.6 mph63%29.88 "Hg10 mi
6:51 PM85 °FScattered clouds.6 mph59%29.89 "Hg10 mi
5:51 PM86 °FPartly sunny.9 mph55%29.89 "Hg10 mi
4:51 PM87 °FPartly sunny.8 mph53%29.89 "Hg10 mi
3:51 PM89 °FBroken clouds.10 mph52%29.91 "Hg10 mi
2:51 PM89 °FBroken clouds.7 mph52%29.93 "Hg10 mi
1:51 PM88 °FBroken clouds.8 mph55%29.95 "Hg10 mi
Weather by CustomWeather, © 2015

See weather overviewHow to use our weather pages